Stations météo

réclame
Mon MeteoGroup
Kirkwall, Grande-Bretagne (3017): Température de l'air & dewpoint: 18.11.2020 11:00:00 - 24.11.2020 11:00:00 (GMT)Kirkwall, Grande-Bretagne (3017): Température de l'air -20cm & Température de l'air -100cm: 18.11.2020 11:00:00 - 24.11.2020 11:00:00 (GMT)Kirkwall, Grande-Bretagne (3017): Vitesse du vent & gusts: 18.11.2020 11:00:00 - 24.11.2020 11:00:00 (GMT)Kirkwall, Grande-Bretagne (3017): Direction du vent: 18.11.2020 11:00:00 - 24.11.2020 11:00:00 (GMT)Kirkwall, Grande-Bretagne (3017): reduced air pressure: 18.11.2020 11:00:00 - 24.11.2020 11:00:00 (GMT)Kirkwall, Grande-Bretagne (3017): visibility: 18.11.2020 11:00:00 - 24.11.2020 11:00:00 (GMT)Kirkwall, Grande-Bretagne (3017): Ensoleillement: 18.11.2020 11:00:00 - 24.11.2020 11:00:00 (GMT)Kirkwall, Grande-Bretagne (3017): Quantités de précipitations: 18.11.2020 11:00:00 - 24.11.2020 11:00:00 (GMT)
Date & Time tt [°C] td [°C] tt -20cm [°C] tt -100cm [°C] ff [km/h] ff [knt] fx [km/h] fx [knt] dd ppp [hPa] vv [km] sd [min] rr [mm]
24.11.2020 11:00:00 8,4 5,7 - - 22 12 - - S 1001,9 35 0 0,0
24.11.2020 10:00:00 8,2 5,6 - - 22 12 - - S 1002,0 35 0 0,0
24.11.2020 09:00:00 7,2 4,7 7,7 8,9 21 11 - - S 1002,4 35 0 0,0
24.11.2020 08:00:00 7,9 4,9 - - 21 11 - - SSW 1002,1 35 0 0,0
24.11.2020 07:00:00 7,8 5,4 - - 22 12 - - SSW 1002,2 30 0 0,0
24.11.2020 06:00:00 7,8 5,4 - - 21 11 - - SSW 1002,0 30 0 0,0
24.11.2020 05:00:00 7,5 5,1 - - 26 14 - - SW 1001,9 35 0 0,0
24.11.2020 04:00:00 7,6 5,7 - - 28 15 - - SW 1002,0 20 0 0,2
24.11.2020 03:00:00 7,4 6,1 - - 24 13 - - SSW 1001,9 30 0 0,2
24.11.2020 02:00:00 7,7 6,0 - - 28 15 - - SW 1002,4 9 0 0,0
24.11.2020 01:00:00 7,5 5,8 - - 29 16 - - SW 1002,1 40 0 0,0
24.11.2020 00:00:00 7,5 5,2 - - 26 14 - - SSW 1001,9 40 - 0,0
23.11.2020 23:00:00 7,9 5,2 - - 29 16 - - SSW 1002,3 40 0 0,0
23.11.2020 22:00:00 8,2 5,5 - - 26 14 - - SSW 1002,3 35 0 0,0
23.11.2020 21:00:00 8,5 7,0 - - 24 13 48 26 SSW 1002,5 29 0 0,0
23.11.2020 20:00:00 8,8 6,8 - - 31 17 - - SSW 1002,5 30 0 0,0
23.11.2020 19:00:00 7,8 6,6 - - 21 11 - - S 1002,7 45 0 0,0
23.11.2020 18:00:00 7,9 6,2 - - 29 16 54 29 SSW 1002,9 50 0 0,0
23.11.2020 17:00:00 8,2 5,7 - - 41 22 61 33 S 1002,5 50 0 0,0
23.11.2020 16:00:00 8,3 5,3 - - 41 22 61 33 S 1003,2 45 0 0,0
23.11.2020 15:00:00 8,1 5,0 - - 39 21 61 33 S 1004,0 40 0 0,0
23.11.2020 14:00:00 7,9 4,1 - - 44 24 63 34 S 1004,9 45 0 0,2
23.11.2020 13:00:00 7,8 4,3 - - 39 21 59 32 SSW 1005,9 40 0 0,0
23.11.2020 12:00:00 7,8 4,8 - - 35 19 50 27 S 1007,3 55 0 0,0
23.11.2020 11:00:00 8,0 6,2 - - 29 16 48 26 S 1008,7 55 0 0,0
23.11.2020 10:00:00 7,9 6,1 - - 29 16 - - SSW 1009,8 55 0 0,0
23.11.2020 09:00:00 7,5 5,7 7,9 9,0 29 16 - - S 1010,7 50 0 0,0
23.11.2020 08:00:00 7,5 5,7 - - 29 16 - - S 1011,3 50 0 0,0
23.11.2020 07:00:00 6,9 5,2 - - 24 13 - - S 1011,8 45 0 0,0
23.11.2020 06:00:00 6,3 4,8 - - 22 12 - - S 1012,3 50 0 0,0
23.11.2020 05:00:00 6,4 5,1 - - 26 14 - - SW 1012,9 45 0 0,0
23.11.2020 04:00:00 6,6 5,1 - - 24 13 - - SW 1013,4 35 0 0,2
23.11.2020 03:00:00 6,5 5,1 - - 21 11 - - WSW 1013,7 12 0 0,2
23.11.2020 02:00:00 6,4 4,7 - - 24 13 - - WSW 1013,9 35 0 0,0
23.11.2020 01:00:00 6,4 4,5 - - 21 11 - - WSW 1014,0 40 0 0,0
23.11.2020 00:00:00 6,0 4,2 - - 22 12 50 27 WSW 1013,9 45 - 0,0
22.11.2020 23:00:00 5,1 3,8 - - 24 13 54 29 W 1013,7 22 0 0,6
22.11.2020 22:00:00 5,0 3,7 - - 11 6 - - W 1013,7 16 0 0,2
22.11.2020 21:00:00 5,0 3,3 - - 22 12 46 25 WSW 1013,7 75 0 0,4
22.11.2020 20:00:00 5,8 3,3 - - 22 12 - - W 1013,6 50 0 0,2
22.11.2020 19:00:00 5,7 3,4 - - 29 16 48 26 W 1013,1 45 0 0,0
22.11.2020 18:00:00 5,6 3,4 - - 26 14 57 31 W 1012,7 50 0 0,8
22.11.2020 17:00:00 4,4 2,7 - - 21 11 65 35 WSW 1012,5 55 0 1,2
22.11.2020 16:00:00 5,6 2,6 - - 35 19 54 29 W 1012,5 50 0 0,6
22.11.2020 15:00:00 5,9 3,5 - - 22 12 54 29 W 1012,5 9 0 0,0
22.11.2020 14:00:00 6,7 4,1 - - 37 20 54 29 W 1012,4 30 0 0,6
22.11.2020 13:00:00 6,4 4,4 - - 28 15 46 25 W 1012,5 15 0 0,4
22.11.2020 12:00:00 6,5 3,3 - - 24 13 65 35 W 1011,9 45 24 0,2
22.11.2020 11:00:00 7,2 4,0 - - 28 15 50 27 W 1011,5 27 0 0,0
22.11.2020 10:00:00 7,1 4,0 - - 29 16 57 31 W 1010,5 26 6 0,0
22.11.2020 09:00:00 7,5 3,6 8,0 9,0 39 21 67 36 W 1009,7 28 0 0,2
22.11.2020 08:00:00 7,6 3,6 - - 35 19 63 34 W 1008,9 19 0 0,0
22.11.2020 07:00:00 7,4 4,8 - - 41 22 83 45 W 1008,0 7 0 0,0
22.11.2020 06:00:00 7,6 4,1 - - 44 24 76 41 W 1006,8 25 0 0,2
22.11.2020 05:00:00 6,9 5,2 - - 54 29 89 48 W 1005,8 22 0 1,8
22.11.2020 04:00:00 8,3 4,5 - - 63 34 104 56 W 1004,2 20 0 0,0
22.11.2020 03:00:00 7,4 5,3 - - 67 36 94 51 W 1003,0 13 0 0,6
22.11.2020 02:00:00 7,1 5,1 - - 63 34 102 55 WSW 1003,1 4,3 0 0,4
22.11.2020 01:00:00 7,7 4,2 - - 57 31 91 49 WSW 1003,4 15 0 0,0
22.11.2020 00:00:00 7,3 4,6 - - 55 30 89 48 WSW 1003,6 15 - 0,2
21.11.2020 23:00:00 6,7 3,5 - - 57 31 87 47 WSW 1003,7 21 0 0,0
21.11.2020 22:00:00 6,3 3,9 - - 55 30 91 49 WSW 1003,6 23 0 1,4
21.11.2020 21:00:00 6,0 3,0 - - 59 32 91 49 WSW 1004,2 1,0 0 0,4
21.11.2020 20:00:00 6,8 3,2 - - 57 31 81 44 WSW 1004,0 2,1 0 0,2
21.11.2020 19:00:00 5,1 3,1 - - 57 31 87 47 W 1004,4 4,8 0 0,8
21.11.2020 18:00:00 6,0 3,1 - - 52 28 89 48 WSW 1004,4 35 0 0,8
21.11.2020 17:00:00 5,4 4,1 - - 50 27 87 47 W 1004,2 2,6 0 2,0
21.11.2020 16:00:00 6,4 4,3 - - 54 29 89 48 WSW 1003,7 12 0 1,0
21.11.2020 15:00:00 6,7 3,6 - - 57 31 87 47 WSW 1003,4 9 24 0,0
21.11.2020 14:00:00 6,2 4,0 - - 48 26 94 51 WSW 1003,8 22 12 0,6
21.11.2020 13:00:00 7,8 2,4 - - 59 32 85 46 W 1003,7 22 18 0,2
21.11.2020 12:00:00 6,4 3,7 - - 55 30 91 49 WSW 1003,9 3,2 24 0,2
21.11.2020 11:00:00 8,2 4,5 - - 55 30 83 45 SW 1003,0 23 6 0,0
21.11.2020 10:00:00 5,8 3,5 - - 67 36 91 49 WSW 1003,3 30 0 1,0
21.11.2020 09:00:00 8,1 3,7 8,2 9,2 52 28 78 42 SW 1002,8 24 0 0,0
21.11.2020 08:00:00 8,8 2,8 - - 52 28 83 45 WSW 1002,7 21 0 0,0
21.11.2020 07:00:00 8,5 3,2 - - 61 33 89 48 WSW 1002,7 18 0 0,0
21.11.2020 06:00:00 8,7 3,2 - - 52 28 87 47 WSW 1002,6 17 0 0,0
21.11.2020 05:00:00 8,8 2,6 - - 67 36 96 52 WSW 1002,2 19 0 0,0
21.11.2020 04:00:00 8,8 2,9 - - 70 38 102 55 WSW 1002,0 22 0 0,0
21.11.2020 03:00:00 9,5 4,7 - - 59 32 89 48 WSW 1001,7 15 0 0,0
21.11.2020 02:00:00 9,7 5,2 - - 63 34 91 49 WSW 1002,4 19 0 0,0
21.11.2020 01:00:00 10,1 5,5 - - 54 29 85 46 WSW 1002,8 11 0 0,0
21.11.2020 00:00:00 10,1 5,4 - - 54 29 76 41 WSW 1003,1 11 - 0,0
20.11.2020 23:00:00 10,4 7,1 - - 52 28 85 46 WSW 1003,3 7 0 0,0
20.11.2020 22:00:00 11,4 7,3 - - 55 30 80 43 WSW 1002,9 11 0 0,0
20.11.2020 21:00:00 11,1 8,3 - - 35 19 55 30 SW 1003,0 35 0 0,0
20.11.2020 20:00:00 11,0 9,7 - - 39 21 52 28 SSW 1002,7 45 0 0,0
20.11.2020 19:00:00 11,0 9,5 - - 39 21 55 30 SSW 1002,9 55 0 0,0
20.11.2020 18:00:00 11,0 9,2 - - 42 23 57 31 SSW 1003,5 60 0 0,0
20.11.2020 17:00:00 10,0 8,8 - - 34 18 54 29 S 1004,8 19 0 0,2
20.11.2020 16:00:00 9,0 8,3 - - 41 22 57 31 SSE 1006,6 10 0 0,0
20.11.2020 15:00:00 8,2 7,7 - - 42 23 57 31 SSE 1008,2 11 0 3,2
20.11.2020 14:00:00 7,7 7,1 - - 35 19 48 26 SSE 1010,3 3,7 0 2,2
20.11.2020 13:00:00 7,8 6,1 - - 29 16 52 28 S 1013,3 29 0 0,0
20.11.2020 12:00:00 7,6 5,5 - - 39 21 52 28 S 1014,1 30 0 0,0
20.11.2020 11:00:00 7,5 5,0 - - 37 20 50 27 S 1015,8 35 0 0,0
20.11.2020 10:00:00 6,7 3,4 - - 34 18 48 26 SSE 1016,9 40 0 0,0
20.11.2020 09:00:00 6,1 2,8 8,7 9,2 31 17 46 25 SSE 1018,8 45 0 0,0
20.11.2020 08:00:00 5,8 1,7 - - 31 17 - - SSE 1020,5 55 0 0,0
20.11.2020 07:00:00 4,8 1,2 - - 26 14 - - SSE 1021,3 65 0 0,0
20.11.2020 06:00:00 3,3 1,7 - - 16 9 - - S 1022,6 60 0 0,0
20.11.2020 05:00:00 1,9 0,5 - - 15 8 - - S 1023,6 60 0 0,0
20.11.2020 04:00:00 1,9 0,2 - - 16 9 - - S 1024,2 65 0 0,0
20.11.2020 03:00:00 2,9 0,2 - - 16 9 - - SSW 1024,9 60 0 0,0
20.11.2020 02:00:00 3,2 1,6 - - 15 8 - - S 1025,2 65 0 0,0
20.11.2020 01:00:00 3,3 2,1 - - 18 10 - - SSW 1026,2 60 0 0,0
20.11.2020 00:00:00 2,9 0,9 - - 9 5 76 41 WSW 1026,5 60 - 0,0
19.11.2020 23:00:00 2,4 0,6 - - 13 7 - - W 1026,4 75 0 0,0
19.11.2020 22:00:00 1,8 -0,3 - - 11 6 46 25 W 1026,5 60 0 0,0
19.11.2020 21:00:00 2,9 1,6 - - 21 11 - - W 1026,4 50 0 0,0
19.11.2020 20:00:00 3,7 2,0 - - 18 10 - - W 1026,2 21 0 0,2
19.11.2020 19:00:00 2,3 0,6 - - 18 10 - - W 1026,0 75 0 0,0
19.11.2020 18:00:00 3,8 0,9 - - 21 11 - - W 1025,5 40 0 0,0
19.11.2020 17:00:00 4,4 -0,6 - - 15 8 50 27 WNW 1024,7 45 0 0,0
19.11.2020 16:00:00 5,2 -3,0 - - 39 21 52 28 NW 1023,5 55 0 0,0
19.11.2020 15:00:00 4,0 0,3 - - 24 13 48 26 NW 1023,9 30 6 0,2
19.11.2020 14:00:00 3,4 0,5 - - 28 15 55 30 WNW 1024,0 45 6 0,4
19.11.2020 13:00:00 4,4 0,7 - - 37 20 57 31 WNW 1023,3 13 42 0,0
19.11.2020 12:00:00 4,8 -1,3 - - 34 18 46 25 WNW 1022,2 60 18 0,0
19.11.2020 11:00:00 3,1 0,8 - - 28 15 54 29 W 1021,3 45 12 0,0
19.11.2020 10:00:00 3,4 0,5 - - 26 14 59 32 NW 1020,5 45 0 0,0
19.11.2020 09:00:00 3,4 -2,8 9,0 9,2 26 14 - - WNW 1019,4 60 0 0,0
19.11.2020 08:00:00 2,2 -1,4 - - 24 13 59 32 WNW 1018,9 55 0 0,0
19.11.2020 07:00:00 2,8 -0,1 - - 31 17 65 35 NNW 1018,0 40 0 0,0
19.11.2020 06:00:00 2,1 0,4 - - 42 23 65 35 N 1017,0 30 0 0,4
19.11.2020 05:00:00 2,8 -0,4 - - 46 25 68 37 N 1015,2 40 0 0,0
19.11.2020 04:00:00 3,4 -0,4 - - 39 21 68 37 N 1013,8 35 0 0,0
19.11.2020 03:00:00 3,4 0,0 - - 44 24 72 39 NNW 1012,3 16 0 0,0
19.11.2020 02:00:00 4,2 -1,6 - - 54 29 80 43 NNW 1010,0 30 0 0,0
19.11.2020 01:00:00 4,8 -1,3 - - 57 31 83 45 NNW 1007,6 30 0 0,0
19.11.2020 00:00:00 5,1 0,2 - - 59 32 83 45 N 1005,0 23 - 0,0
18.11.2020 23:00:00 4,9 2,8 - - 65 35 98 53 N 1002,3 9 0 0,6
18.11.2020 22:00:00 4,9 3,7 - - 74 40 106 57 N 999,0 4,3 0 1,4
18.11.2020 21:00:00 6,9 5,2 - - 72 39 93 50 N 995,3 7 0 1,2
18.11.2020 20:00:00 6,2 5,1 - - 68 37 93 50 N 992,4 3,5 0 1,2
18.11.2020 19:00:00 7,4 6,7 - - 63 34 81 44 N 989,3 1,8 0 0,2
18.11.2020 18:00:00 8,3 7,5 - - 29 16 - - SW 988,4 30 0 0,0
18.11.2020 17:00:00 9,4 8,0 - - 34 18 50 27 SW 988,8 35 0 0,0
18.11.2020 16:00:00 9,6 8,6 - - 39 21 50 27 SW 989,0 28 0 0,0
18.11.2020 15:00:00 9,8 8,3 - - 24 13 - - SW 989,9 45 12 0,0
18.11.2020 14:00:00 10,2 8,8 - - 31 17 46 25 WSW 990,5 55 24 0,0
18.11.2020 13:00:00 10,1 9,1 - - 35 19 - - SW 990,8 55 - 0,0
18.11.2020 12:00:00 - - - - - - - - - - - - -
18.11.2020 11:00:00 - - - - - - - - - - - - -

tt = Température de l'air
td = dewpoint
tt -20cm = Température de l'air -20cm
tt -100cm = Température de l'air -100cm
ff = Vitesse du vent
fx = gusts
dd = Direction du vent
ppp = reduced air pressure
vv = visibility
sd = Ensoleillement
rr = Quantités de précipitations

stations d'obs. à proximité